Date,TemperatureHighF,TemperatureAvgF,TemperatureLowF,DewpointHighF,DewpointAvgF,DewpointLowF,HumidityHigh,HumidityAvg,HumidityLow,PressureMaxIn,PressureMinIn,WindSpeedMaxMPH,WindSpeedAvgMPH,GustSpeedMaxMPH,PrecipitationSumIn
2013-1-1,36,24,17,-100,-100,-100,0,0,100,0.00,40.00,0,-999,0,0.00
2013-1-2,36,24,17,-100,-100,-100,0,0,100,0.00,40.00,0,-999,0,0.00
2013-1-3,44,25,15,-100,-100,-100,0,0,100,0.00,40.00,0,-999,0,0.00
2013-1-4,51,27,15,-100,-100,-100,0,0,100,0.00,40.00,0,-999,0,0.00
2013-1-5,45,31,17,-100,-100,-100,0,0,100,0.00,40.00,0,-999,0,0.00
2013-1-6,54,29,18,-100,-100,-100,0,0,100,0.00,40.00,0,-999,0,0.00
2013-1-7,56,43,28,-100,-100,-100,0,0,100,0.00,40.00,0,-999,0,0.00
2013-1-8,55,37,20,-100,-100,-100,0,0,100,0.00,40.00,0,-999,0,0.00
2013-1-9,56,36,25,-100,-100,-100,0,0,100,0.00,40.00,0,-999,0,0.00
2013-1-10,50,44,37,-100,-100,-100,0,0,100,0.00,40.00,0,-999,0,0.00
2013-1-11,52,38,25,-100,-100,-100,0,0,100,0.00,40.00,0,-999,0,0.00
2013-1-12,30,20,15,-100,-100,-100,0,0,100,0.00,40.00,0,-999,0,0.00
2013-1-13,40,22,13,-100,-100,-100,0,0,100,0.00,40.00,0,-999,0,0.00
2013-1-14,32,27,18,-100,-100,-100,0,0,100,0.00,40.00,0,-999,0,0.00
2013-1-15,36,29,10,-100,-100,-100,0,0,100,0.00,40.00,0,-999,0,0.00
2013-1-16,56,43,32,-100,-100,-100,0,0,100,0.00,40.00,0,-999,0,0.00
2013-1-17,60,35,24,-100,-100,-100,0,0,100,0.00,40.00,0,-999,0,0.00
2013-1-18,67,41,24,-100,-100,-100,0,0,100,0.00,40.00,0,-999,0,0.00
2013-1-19,61,41,25,-100,-100,-100,0,0,100,0.00,40.00,0,-999,0,0.00
2013-1-20,54,36,23,-100,-100,-100,0,0,100,0.00,40.00,0,-999,0,0.00
2013-1-21,57,32,19,-100,-100,-100,0,0,100,0.00,40.00,0,-999,0,0.00
2013-1-22,68,37,25,-100,-100,-100,0,0,100,0.00,40.00,0,-999,0,0.00
2013-1-23,66,44,24,-100,-100,-100,0,0,100,0.00,40.00,0,-999,0,0.00
2013-1-24,48,38,25,-100,-100,-100,0,0,100,0.00,40.00,0,-999,0,0.00
2013-1-25,58,39,28,-100,-100,-100,0,0,100,0.00,40.00,0,-999,0,0.00
2013-1-26,63,46,27,-100,-100,-100,0,0,100,0.00,40.00,0,-999,0,0.00
2013-1-27,65,44,34,-100,-100,-100,0,0,100,0.00,40.00,0,-999,0,0.00
2013-1-28,64,44,28,-100,-100,-100,0,0,100,0.00,40.00,0,-999,0,0.00
2013-1-29,36,32,25,-100,-100,-100,0,0,100,0.00,40.00,0,-999,0,0.00
2013-1-30,44,34,20,-100,-100,-100,0,0,100,0.00,40.00,0,-999,0,0.00
2013-1-31,50,39,32,-100,-100,-100,0,0,100,0.00,40.00,0,-999,0,0.00
2013-2-1,60,36,27,-100,-100,-100,0,0,100,0.00,40.00,0,-999,0,0.00
2013-2-2,60,36,29,-100,-100,-100,0,0,100,0.00,40.00,0,-999,0,0.00
2013-2-3,62,38,26,-100,-100,-100,0,0,100,0.00,40.00,0,-999,0,0.00
2013-2-4,60,40,26,-100,-100,-100,0,0,100,0.00,40.00,0,-999,0,0.00
2013-2-5,67,43,30,-100,-100,-100,0,0,100,0.00,40.00,0,-999,0,0.00
2013-2-6,64,48,29,-100,-100,-100,0,0,100,0.00,40.00,0,-999,0,0.00
2013-2-7,57,46,36,-100,-100,-100,0,0,100,0.00,40.00,0,-999,0,0.00
2013-2-8,57,38,25,-100,-100,-100,0,0,100,0.00,40.00,0,-999,0,0.00
2013-2-9,60,42,32,-100,-100,-100,0,0,100,0.00,40.00,0,-999,0,0.00
2013-2-10,42,36,27,-100,-100,-100,0,0,100,0.00,40.00,0,-999,0,0.00
2013-2-11,44,34,24,-100,-100,-100,0,0,100,0.00,40.00,0,-999,0,0.00
2013-2-12,48,31,17,-100,-100,-100,0,0,100,0.00,40.00,0,-999,0,0.00
2013-2-13,59,33,20,-100,-100,-100,0,0,100,0.00,40.00,0,-999,0,0.00
2013-2-14,52,34,30,-100,-100,-100,0,0,100,0.00,40.00,0,-999,0,0.00
2013-2-15,44,34,27,-100,-100,-100,0,0,100,0.00,40.00,0,-999,0,0.00
2013-2-16,63,43,22,-100,-100,-100,0,0,100,0.00,40.00,0,-999,0,0.00
2013-2-17,65,45,26,-100,-100,-100,0,0,100,0.00,40.00,0,-999,0,0.00
2013-2-18,48,36,22,-100,-100,-100,0,0,100,0.00,40.00,0,-999,0,0.00
2013-2-19,53,34,19,-100,-100,-100,0,0,100,0.00,40.00,0,-999,0,0.00
2013-2-20,36,33,31,-100,-100,-100,0,0,100,0.00,40.00,0,-999,0,0.00
2013-2-21,34,29,22,-100,-100,-100,0,0,100,0.00,40.00,0,-999,0,0.00
2013-2-22,41,28,17,-100,-100,-100,0,0,100,0.00,40.00,0,-999,0,0.00
2013-2-23,60,36,19,-100,-100,-100,0,0,100,0.00,40.00,0,-999,0,0.00
2013-2-24,34,32,29,-100,-100,-100,0,0,100,0.00,40.00,0,-999,0,0.00
2013-2-25,39,34,29,-100,-100,-100,0,0,100,0.00,40.00,0,-999,0,0.00
2013-2-26,38,28,16,-100,-100,-100,0,0,100,0.00,40.00,0,-999,0,0.00
2013-2-27,42,35,26,-100,-100,-100,0,0,100,0.00,40.00,0,-999,0,0.00
2013-2-28,49,37,22,-100,-100,-100,0,0,100,0.00,40.00,0,-999,0,0.00
2013-3-1,49,37,28,-100,-100,-100,0,0,100,0.00,40.00,0,-999,0,0.00
2013-3-2,65,47,34,-100,-100,-100,0,0,100,0.00,40.00,0,-999,0,0.00
2013-3-3,67,45,36,-100,-100,-100,0,0,100,0.00,40.00,0,-999,0,0.00
2013-3-4,43,35,24,-100,-100,-100,0,0,100,0.00,40.00,0,-999,0,0.00
2013-3-5,56,36,19,-100,-100,-100,0,0,100,0.00,40.00,0,-999,0,0.00
2013-3-6,65,45,27,-100,-100,-100,0,0,100,0.00,40.00,0,-999,0,0.00
2013-3-7,77,47,29,-100,-100,-100,0,0,100,0.00,40.00,0,-999,0,0.00
2013-3-8,68,49,31,-100,-100,-100,0,0,100,0.00,40.00,0,-999,0,0.00
2013-3-9,44,38,31,-100,-100,-100,0,0,100,0.00,40.00,0,-999,0,0.00
2013-3-10,36,31,28,-100,-100,-100,0,0,100,0.00,40.00,0,-999,0,0.00
2013-3-11,56,39,25,-100,-100,-100,0,0,100,0.00,40.00,0,-999,0,0.00
2013-3-12,55,43,36,-100,-100,-100,0,0,100,0.00,40.00,0,-999,0,0.00
2013-3-13,74,51,29,-100,-100,-100,0,0,100,0.00,40.00,0,-999,0,0.00
2013-3-14,74,49,35,-100,-100,-100,0,0,100,0.00,40.00,0,-999,0,0.00
2013-3-15,78,52,37,-100,-100,-100,0,0,100,0.00,40.00,0,-999,0,0.00
2013-3-16,66,50,39,-100,-100,-100,0,0,100,0.00,40.00,0,-999,0,0.00
2013-3-17,58,44,32,-100,-100,-100,0,0,100,0.00,40.00,0,-999,0,0.00
2013-3-18,63,45,30,-100,-100,-100,0,0,100,0.00,40.00,0,-999,0,0.00
2013-3-19,54,39,27,-100,-100,-100,0,0,100,0.00,40.00,0,-999,0,0.00
2013-3-20,56,41,25,-100,-100,-100,0,0,100,0.00,40.00,0,-999,0,0.00
2013-3-21,60,43,30,-100,-100,-100,0,0,100,0.00,40.00,0,-999,0,0.00
2013-3-22,59,43,30,-100,-100,-100,0,0,100,0.00,40.00,0,-999,0,0.00
2013-3-23,35,31,28,-100,-100,-100,0,0,100,0.00,40.00,0,-999,0,0.00
2013-3-24,44,28,19,-100,-100,-100,0,0,100,0.00,40.00,0,-999,0,0.00
2013-3-25,38,28,18,-100,-100,-100,0,0,100,0.00,40.00,0,-999,0,0.00
2013-3-26,61,39,22,-100,-100,-100,0,0,100,0.00,40.00,0,-999,0,0.00
2013-3-27,56,44,33,-100,-100,-100,0,0,100,0.00,40.00,0,-999,0,0.00
2013-3-28,72,57,34,-100,-100,-100,0,0,100,0.00,40.00,0,-999,0,0.00
2013-3-29,75,52,38,-100,-100,-100,0,0,100,0.00,40.00,0,-999,0,0.00
2013-3-30,74,57,44,-100,-100,-100,0,0,100,0.00,40.00,0,-999,0,0.00
2013-3-31,73,51,37,-100,-100,-100,0,0,100,0.00,40.00,0,-999,0,0.00
2013-4-1,51,40,34,-100,-100,-100,0,0,100,0.00,40.00,0,-999,0,0.00
2013-4-2,43,40,37,-100,-100,-100,0,0,100,0.00,40.00,0,-999,0,0.00
2013-4-3,58,45,36,-100,-100,-100,0,0,100,0.00,40.00,0,-999,0,0.00
2013-4-4,72,54,32,-100,-100,-100,0,0,100,0.00,40.00,0,-999,0,0.00
2013-4-5,77,55,44,-100,-100,-100,0,0,100,0.00,40.00,0,-999,0,0.00
2013-4-6,71,58,51,-100,-100,-100,0,0,100,0.00,40.00,0,-999,0,0.00
2013-4-7,76,59,45,-100,-100,-100,0,0,100,0.00,40.00,0,-999,0,0.00
2013-4-8,75,59,43,-100,-100,-100,0,0,100,0.00,40.00,0,-999,0,0.00
2013-4-9,45,25,18,-100,-100,-100,0,0,100,0.00,40.00,0,-999,0,0.00
2013-4-10,35,24,18,-100,-100,-100,0,0,100,0.00,40.00,0,-999,0,0.00
2013-4-11,60,40,23,-100,-100,-100,0,0,100,0.00,40.00,0,-999,0,0.00
2013-4-12,70,48,35,-100,-100,-100,0,0,100,0.00,40.00,0,-999,0,0.00
2013-4-13,76,56,42,-100,-100,-100,0,0,100,0.00,40.00,0,-999,0,0.00
2013-4-14,62,50,40,-100,-100,-100,0,0,100,0.00,40.00,0,-999,0,0.00
2013-4-15,63,46,37,-100,-100,-100,0,0,100,0.00,40.00,0,-999,0,0.00
2013-4-16,46,41,37,-100,-100,-100,0,0,100,0.00,40.00,0,-999,0,0.00
2013-4-17,37,34,30,-100,-100,-100,0,0,100,0.00,40.00,0,-999,0,0.00
2013-4-18,35,29,27,-100,-100,-100,0,0,100,0.00,40.00,0,-999,0,0.00
2013-4-19,63,46,27,-100,-100,-100,0,0,100,0.00,40.00,0,-999,0,0.00
2013-4-20,68,50,39,-100,-100,-100,0,0,100,0.00,40.00,0,-999,0,0.00
2013-4-21,72,57,37,-100,-100,-100,0,0,100,0.00,40.00,0,-999,0,0.00
2013-4-22,65,46,28,-100,-100,-100,0,0,100,0.00,40.00,0,-999,0,0.00
2013-4-23,39,32,24,-100,-100,-100,0,0,100,0.00,40.00,0,-999,0,0.00
2013-4-24,66,47,29,-100,-100,-100,0,0,100,0.00,40.00,0,-999,0,0.00
2013-4-25,69,55,33,-100,-100,-100,0,0,100,0.00,40.00,0,-999,0,0.00
2013-4-26,72,57,46,-100,-100,-100,0,0,100,0.00,40.00,0,-999,0,0.00
2013-4-27,79,56,37,-100,-100,-100,0,0,100,0.00,40.00,0,-999,0,0.00
2013-4-28,85,68,43,-100,-100,-100,0,0,100,0.00,40.00,0,-999,0,0.00
2013-4-29,86,68,51,-100,-100,-100,0,0,100,0.00,40.00,0,-999,0,0.00
2013-4-30,74,61,51,-100,-100,-100,0,0,100,0.00,40.00,0,-999,0,0.00
2013-5-1,53,37,29,-100,-100,-100,0,0,100,0.00,40.00,0,-999,0,0.00
2013-5-2,51,43,33,-100,-100,-100,0,0,100,0.00,40.00,0,-999,0,0.00
2013-5-3,63,44,29,-100,-100,-100,0,0,100,0.00,40.00,0,-999,0,0.00
2013-5-4,62,50,33,-100,-100,-100,0,0,100,0.00,40.00,0,-999,0,0.00
2013-5-5,69,52,33,-100,-100,-100,0,0,100,0.00,40.00,0,-999,0,0.00
2013-5-6,70,53,36,-100,-100,-100,0,0,100,0.00,40.00,0,-999,0,0.00
2013-5-7,84,62,48,-100,-100,-100,0,0,100,0.00,40.00,0,-999,0,0.00
2013-5-8,73,55,49,-100,-100,-100,0,0,100,0.00,40.00,0,-999,0,0.00
2013-5-9,61,52,48,-100,-100,-100,0,0,100,0.00,40.00,0,-999,0,0.00
2013-5-10,71,57,44,-100,-100,-100,0,0,100,0.00,40.00,0,-999,0,0.00
2013-5-11,77,56,46,-100,-100,-100,0,0,100,0.00,40.00,0,-999,0,0.00
2013-5-12,79,65,49,-100,-100,-100,0,0,100,0.00,40.00,0,-999,0,0.00
2013-5-13,88,68,49,-100,-100,-100,0,0,100,0.00,40.00,0,-999,0,0.00
2013-5-14,93,78,53,-100,-100,-100,0,0,100,0.00,40.00,0,-999,0,0.00
2013-5-15,85,70,62,-100,-100,-100,0,0,100,0.00,40.00,0,-999,0,0.00
2013-5-16,85,69,58,-100,-100,-100,0,0,100,0.00,40.00,0,-999,0,0.00
2013-5-17,87,72,59,-100,-100,-100,0,0,100,0.00,40.00,0,-999,0,0.00
2013-5-18,90,72,60,-100,-100,-100,0,0,100,0.00,40.00,0,-999,0,0.00
2013-5-19,72,62,53,-100,-100,-100,0,0,100,0.00,40.00,0,-999,0,0.00
2013-5-20,68,59,46,-100,-100,-100,0,0,100,0.00,40.00,0,-999,0,0.00
2013-5-21,71,58,47,-100,-100,-100,0,0,100,0.00,40.00,0,-999,0,0.00
2013-5-22,84,68,44,-100,-100,-100,0,0,100,0.00,40.00,0,-999,0,0.00
2013-5-23,65,58,51,-100,-100,-100,0,0,100,0.00,40.00,0,-999,0,0.00
2013-5-24,90,69,56,-100,-100,-100,0,0,100,0.00,40.00,0,-999,0,0.00
2013-5-25,92,76,65,-100,-100,-100,0,0,100,0.00,40.00,0,-999,0,0.00
2013-5-26,91,74,60,-100,-100,-100,0,0,100,0.00,40.00,0,-999,0,0.00
2013-5-27,90,70,55,-100,-100,-100,0,0,100,0.00,40.00,0,-999,0,0.00
2013-5-28,86,70,53,-100,-100,-100,0,0,100,0.00,40.00,0,-999,0,0.00
2013-5-29,88,66,58,-100,-100,-100,0,0,100,0.00,40.00,0,-999,0,0.00
2013-5-30,79,67,54,-100,-100,-100,0,0,100,0.00,40.00,0,-999,0,0.00
2013-5-31,78,68,53,-100,-100,-100,0,0,100,0.00,40.00,0,-999,0,0.00
2013-6-1,70,61,49,-100,-100,-100,0,0,100,0.00,40.00,0,-999,0,0.00
2013-6-2,85,68,43,-100,-100,-100,0,0,100,0.00,40.00,0,-999,0,0.00
2013-6-3,93,77,55,-100,-100,-100,0,0,100,0.00,40.00,0,-999,0,0.00
2013-6-4,78,69,60,-100,-100,-100,0,0,100,0.00,40.00,0,-999,0,0.00
2013-6-5,60,57,50,-100,-100,-100,0,0,100,0.00,40.00,0,-999,0,0.00
2013-6-6,84,64,45,-100,-100,-100,0,0,100,0.00,40.00,0,-999,0,0.00
2013-6-7,87,68,54,-100,-100,-100,0,0,100,0.00,40.00,0,-999,0,0.00
2013-6-8,77,68,57,-100,-100,-100,0,0,100,0.00,40.00,0,-999,0,0.00
2013-6-9,89,76,54,-100,-100,-100,0,0,100,0.00,40.00,0,-999,0,0.00
2013-6-10,97,76,53,-100,-100,-100,0,0,100,0.00,40.00,0,-999,0,0.00
2013-6-11,96,76,63,-100,-100,-100,0,0,100,0.00,40.00,0,-999,0,0.00
2013-6-12,95,78,59,-100,-100,-100,0,0,100,0.00,40.00,0,-999,0,0.00
2013-6-13,94,77,62,-100,-100,-100,0,0,100,0.00,40.00,0,-999,0,0.00
2013-6-14,91,76,60,-100,-100,-100,0,0,100,0.00,40.00,0,-999,0,0.00
2013-6-15,90,70,58,-100,-100,-100,0,0,100,0.00,40.00,0,-999,0,0.00
2013-6-16,89,71,60,-100,-100,-100,0,0,100,0.00,40.00,0,-999,0,0.00
2013-6-17,86,68,54,-100,-100,-100,0,0,100,0.00,40.00,0,-999,0,0.00
2013-6-18,84,70,60,-100,-100,-100,0,0,100,0.00,40.00,0,-999,0,0.00
2013-6-19,84,69,57,-100,-100,-100,0,0,100,0.00,40.00,0,-999,0,0.00
2013-6-20,94,70,60,-100,-100,-100,0,0,100,0.00,40.00,0,-999,0,0.00
2013-6-22,92,83,79,-100,-100,-100,0,0,100,0.00,40.00,0,-999,0,0.00
2013-6-23,87,75,63,-100,-100,-100,0,0,100,0.00,40.00,0,-999,0,0.00
2013-6-24,89,78,65,-100,-100,-100,0,0,100,0.00,40.00,0,-999,0,0.00
2013-6-25,94,82,67,-100,-100,-100,0,0,100,0.00,40.00,0,-999,0,0.00
2013-6-26,96,85,63,-100,-100,-100,0,0,100,0.00,40.00,0,-999,0,0.00
2013-6-27,91,79,70,-100,-100,-100,0,0,100,0.00,40.00,0,-999,0,0.00
2013-6-28,93,79,64,-100,-100,-100,0,0,100,0.00,40.00,0,-999,0,0.00
2013-6-29,91,76,65,-100,-100,-100,0,0,100,0.00,40.00,0,-999,0,0.00
2013-6-30,79,68,62,-100,-100,-100,0,0,100,0.00,40.00,0,-999,0,0.00
2013-7-1,72,64,58,-100,-100,-100,0,0,100,0.00,40.00,0,-999,0,0.00
2013-7-2,86,71,58,-100,-100,-100,0,0,100,0.00,40.00,0,-999,0,0.00
2013-7-3,86,70,60,-100,-100,-100,0,0,100,0.00,40.00,0,-999,0,0.00
2013-7-4,91,76,58,-100,-100,-100,0,0,100,0.00,40.00,0,-999,0,0.00
2013-7-5,94,75,62,-100,-100,-100,0,0,100,0.00,40.00,0,-999,0,0.00
2013-7-6,93,74,66,-100,-100,-100,0,0,100,0.00,40.00,0,-999,0,0.00
2013-7-7,96,79,68,-100,-100,-100,0,0,100,0.00,40.00,0,-999,0,0.00
2013-7-8,91,76,67,-100,-100,-100,0,0,100,0.00,40.00,0,-999,0,0.00
2013-7-9,94,80,64,-100,-100,-100,0,0,100,0.00,40.00,0,-999,0,0.00
2013-7-10,91,78,65,-100,-100,-100,0,0,100,0.00,40.00,0,-999,0,0.00
2013-7-11,87,72,64,-100,-100,-100,0,0,100,0.00,40.00,0,-999,0,0.00
2013-7-12,96,78,67,-100,-100,-100,0,0,100,0.00,40.00,0,-999,0,0.00
2013-7-13,93,78,65,-100,-100,-100,0,0,100,0.00,40.00,0,-999,0,0.00
2013-7-14,84,73,63,-100,-100,-100,0,0,100,0.00,40.00,0,-999,0,0.00
2013-7-15,82,67,60,-100,-100,-100,0,0,100,0.00,40.00,0,-999,0,0.00
2013-7-16,79,68,60,-100,-100,-100,0,0,100,0.00,40.00,0,-999,0,0.00
2013-7-17,80,70,62,-100,-100,-100,0,0,100,0.00,40.00,0,-999,0,0.00
2013-7-18,90,80,61,-100,-100,-100,0,0,100,0.00,40.00,0,-999,0,0.00
2013-7-19,89,73,65,-100,-100,-100,0,0,100,0.00,40.00,0,-999,0,0.00
2013-7-20,85,73,63,-100,-100,-100,0,0,100,0.00,40.00,0,-999,0,0.00
2013-7-21,89,77,63,-100,-100,-100,0,0,100,0.00,40.00,0,-999,0,0.00
2013-7-22,91,78,65,-100,-100,-100,0,0,100,0.00,40.00,0,-999,0,0.00
2013-7-23,87,72,61,-100,-100,-100,0,0,100,0.00,40.00,0,-999,0,0.00
2013-7-24,86,70,63,-100,-100,-100,0,0,100,0.00,40.00,0,-999,0,0.00
2013-7-25,85,75,63,-100,-100,-100,0,0,100,0.00,40.00,0,-999,0,0.00
2013-7-26,83,70,61,-100,-100,-100,0,0,100,0.00,40.00,0,-999,0,0.00
2013-7-27,84,71,59,-100,-100,-100,0,0,100,0.00,40.00,0,-999,0,0.00
2013-7-28,75,63,59,-100,-100,-100,0,0,100,0.00,40.00,0,-999,0,0.00
2013-7-29,87,69,64,-100,-100,-100,0,0,100,0.00,40.00,0,-999,0,0.00
2013-7-30,89,74,62,-100,-100,-100,0,0,100,0.00,40.00,0,-999,0,0.00
2013-7-31,93,76,65,-100,-100,-100,0,0,100,0.00,40.00,0,-999,0,0.00
2013-8-1,89,72,64,-100,-100,-100,0,0,100,0.00,40.00,0,-999,0,0.00
2013-8-2,89,72,62,-100,-100,-100,0,0,100,0.00,40.00,0,-999,0,0.00
2013-8-3,81,73,67,-100,-100,-100,0,0,100,0.00,40.00,0,-999,0,0.00
2013-8-4,88,73,65,-100,-100,-100,0,0,100,0.00,40.00,0,-999,0,0.00
2013-8-5,91,79,70,-100,-100,-100,0,0,100,0.00,40.00,0,-999,0,0.00
2013-8-6,91,78,64,-100,-100,-100,0,0,100,0.00,40.00,0,-999,0,0.00
2013-8-7,74,68,63,-100,-100,-100,0,0,100,0.00,40.00,0,-999,0,0.00
2013-8-8,72,65,61,-100,-100,-100,0,0,100,0.00,40.00,0,-999,0,0.00
2013-8-9,79,65,58,-100,-100,-100,0,0,100,0.00,40.00,0,-999,0,0.00
2013-8-10,82,68,58,-100,-100,-100,0,0,100,0.00,40.00,0,-999,0,0.00
2013-8-11,87,73,62,-100,-100,-100,0,0,100,0.00,40.00,0,-999,0,0.00
2013-8-12,86,73,59,-100,-100,-100,0,0,100,0.00,40.00,0,-999,0,0.00
2013-8-13,84,71,58,-100,-100,-100,0,0,100,0.00,40.00,0,-999,0,0.00
2013-8-14,83,71,62,-100,-100,-100,0,0,100,0.00,40.00,0,-999,0,0.00
2013-8-15,86,76,58,-100,-100,-100,0,0,100,0.00,40.00,0,-999,0,0.00
2013-8-16,88,71,60,-100,-100,-100,0,0,100,0.00,40.00,0,-999,0,0.00
2013-8-17,86,71,62,-100,-100,-100,0,0,100,0.00,40.00,0,-999,0,0.00
2013-8-18,85,73,63,-100,-100,-100,0,0,100,0.00,40.00,0,-999,0,0.00
2013-8-19,90,70,60,-100,-100,-100,0,0,100,0.00,40.00,0,-999,0,0.00
2013-8-20,90,73,61,-100,-100,-100,0,0,100,0.00,40.00,0,-999,0,0.00
2013-8-21,94,78,63,-100,-100,-100,0,0,100,0.00,40.00,0,-999,0,0.00
2013-8-22,85,76,68,-100,-100,-100,0,0,100,0.00,40.00,0,-999,0,0.00
2013-8-23,90,74,67,-100,-100,-100,0,0,100,0.00,40.00,0,-999,0,0.00
2013-8-24,92,76,60,-100,-100,-100,0,0,100,0.00,40.00,0,-999,0,0.00
2013-8-25,91,75,65,-100,-100,-100,0,0,100,0.00,40.00,0,-999,0,0.00
2013-8-26,91,76,64,-100,-100,-100,0,0,100,0.00,40.00,0,-999,0,0.00
2013-8-27,86,69,60,-100,-100,-100,0,0,100,0.00,40.00,0,-999,0,0.00
2013-8-28,93,85,69,-100,-100,-100,0,0,100,0.00,40.00,0,-999,0,0.00
2013-8-29,95,80,57,-100,-100,-100,0,0,100,0.00,40.00,0,-999,0,0.00
2013-8-30,96,77,63,-100,-100,-100,0,0,100,0.00,40.00,0,-999,0,0.00
2013-8-31,93,78,67,-100,-100,-100,0,0,100,0.00,40.00,0,-999,0,0.00
2013-9-1,77,71,64,-100,-100,-100,0,0,100,0.00,40.00,0,-999,0,0.00
2013-9-2,86,73,61,-100,-100,-100,0,0,100,0.00,40.00,0,-999,0,0.00
2013-9-3,91,75,63,-100,-100,-100,0,0,100,0.00,40.00,0,-999,0,0.00
2013-9-4,93,79,60,-100,-100,-100,0,0,100,0.00,40.00,0,-999,0,0.00
2013-9-5,93,77,64,-100,-100,-100,0,0,100,0.00,40.00,0,-999,0,0.00
2013-9-6,93,71,60,-100,-100,-100,0,0,100,0.00,40.00,0,-999,0,0.00
2013-9-7,93,76,56,-100,-100,-100,0,0,100,0.00,40.00,0,-999,0,0.00
2013-9-8,91,76,55,-100,-100,-100,0,0,100,0.00,40.00,0,-999,0,0.00
2013-9-9,93,80,63,-100,-100,-100,0,0,100,0.00,40.00,0,-999,0,0.00
2013-9-10,87,72,61,-100,-100,-100,0,0,100,0.00,40.00,0,-999,0,0.00
2013-9-11,72,66,63,-100,-100,-100,0,0,100,0.00,40.00,0,-999,0,0.00
2013-9-12,72,64,60,-100,-100,-100,0,0,100,0.00,40.00,0,-999,0,0.00
2013-9-13,67,63,59,-100,-100,-100,0,0,100,0.00,40.00,0,-999,0,0.00
2013-9-14,83,70,59,-100,-100,-100,0,0,100,0.00,40.00,0,-999,0,0.00
2013-9-15,65,59,53,-100,-100,-100,0,0,100,0.00,40.00,0,-999,0,0.00
2013-9-16,62,58,53,-100,-100,-100,0,0,100,0.00,40.00,0,-999,0,0.00
2013-9-17,85,70,58,-100,-100,-100,0,0,100,0.00,40.00,0,-999,0,0.00
2013-9-18,70,62,57,-100,-100,-100,0,0,100,0.00,40.00,0,-999,0,0.00
2013-9-19,70,63,58,-100,-100,-100,0,0,100,0.00,40.00,0,-999,0,0.00
2013-9-20,75,64,51,-100,-100,-100,0,0,100,0.00,40.00,0,-999,0,0.00
2013-9-21,82,63,41,-100,-100,-100,0,0,100,0.00,40.00,0,-999,0,0.00
2013-9-22,86,67,53,-100,-100,-100,0,0,100,0.00,40.00,0,-999,0,0.00
2013-9-23,65,58,50,-100,-100,-100,0,0,100,0.00,40.00,0,-999,0,0.00
2013-9-24,82,52,41,-100,-100,-100,0,0,100,0.00,40.00,0,-999,0,0.00
2013-9-25,70,63,42,-100,-100,-100,0,0,100,0.00,40.00,0,-999,0,0.00
2013-9-26,84,68,50,-100,-100,-100,0,0,100,0.00,40.00,0,-999,0,0.00
2013-9-27,79,59,44,-100,-100,-100,0,0,100,0.00,40.00,0,-999,0,0.00
2013-9-28,60,46,32,-100,-100,-100,0,0,100,0.00,40.00,0,-999,0,0.00
2013-9-29,81,63,30,-100,-100,-100,0,0,100,0.00,40.00,0,-999,0,0.00
2013-9-30,86,65,42,-100,-100,-100,0,0,100,0.00,40.00,0,-999,0,0.00
2013-10-1,73,66,52,-100,-100,-100,0,0,100,0.00,40.00,0,-999,0,0.00
2013-10-2,82,62,45,-100,-100,-100,0,0,100,0.00,40.00,0,-999,0,0.00
2013-10-3,77,61,44,-100,-100,-100,0,0,100,0.00,40.00,0,-999,0,0.00
2013-10-4,53,48,32,-100,-100,-100,0,0,100,0.00,40.00,0,-999,0,0.00
2013-10-5,58,39,25,-100,-100,-100,0,0,100,0.00,40.00,0,-999,0,0.00
2013-10-6,68,58,39,-100,-100,-100,0,0,100,0.00,40.00,0,-999,0,0.00
2013-10-7,79,58,30,-100,-100,-100,0,0,100,0.00,40.00,0,-999,0,0.00
2013-10-8,78,62,34,-100,-100,-100,0,0,100,0.00,40.00,0,-999,0,0.00
2013-10-9,80,64,48,-100,-100,-100,0,0,100,0.00,40.00,0,-999,0,0.00
2013-10-10,78,55,39,-100,-100,-100,0,0,100,0.00,40.00,0,-999,0,0.00
2013-10-11,70,54,37,-100,-100,-100,0,0,100,0.00,40.00,0,-999,0,0.00
2013-10-12,60,49,39,-100,-100,-100,0,0,100,0.00,40.00,0,-999,0,0.00
2013-10-13,64,56,39,-100,-100,-100,0,0,100,0.00,40.00,0,-999,0,0.00
2013-10-14,66,54,42,-100,-100,-100,0,0,100,0.00,40.00,0,-999,0,0.00
2013-10-15,54,39,31,-100,-100,-100,0,0,100,0.00,40.00,0,-999,0,0.00
2013-10-16,55,42,35,-100,-100,-100,0,0,100,0.00,40.00,0,-999,0,0.00
2013-10-17,62,42,31,-100,-100,-100,0,0,100,0.00,40.00,0,-999,0,0.00
2013-10-18,48,40,32,-100,-100,-100,0,0,100,0.00,40.00,0,-999,0,0.00
2013-10-19,67,44,29,-100,-100,-100,0,0,100,0.00,40.00,0,-999,0,0.00
2013-10-20,54,43,32,-100,-100,-100,0,0,100,0.00,40.00,0,-999,0,0.00
2013-10-21,61,46,35,-100,-100,-100,0,0,100,0.00,40.00,0,-999,0,0.00
2013-10-22,67,50,41,-100,-100,-100,0,0,100,0.00,40.00,0,-999,0,0.00
2013-10-23,68,48,34,-100,-100,-100,0,0,100,0.00,40.00,0,-999,0,0.00
2013-10-24,60,42,32,-100,-100,-100,0,0,100,0.00,40.00,0,-999,0,0.00
2013-10-25,63,46,37,-100,-100,-100,0,0,100,0.00,40.00,0,-999,0,0.00
2013-10-26,67,56,45,-100,-100,-100,0,0,100,0.00,40.00,0,-999,0,0.00
2013-10-27,77,56,37,-100,-100,-100,0,0,100,0.00,40.00,0,-999,0,0.00
2013-10-28,45,42,38,-100,-100,-100,0,0,100,0.00,40.00,0,-999,0,0.00
2013-10-29,60,47,39,-100,-100,-100,0,0,100,0.00,40.00,0,-999,0,0.00
2013-10-30,53,47,41,-100,-100,-100,0,0,100,0.00,40.00,0,-999,0,0.00
2013-10-31,54,45,37,-100,-100,-100,0,0,100,0.00,40.00,0,-999,0,0.00
2013-11-1,56,50,39,-100,-100,-100,0,0,100,0.00,40.00,0,-999,0,0.00
2013-11-2,63,48,29,-100,-100,-100,0,0,100,0.00,40.00,0,-999,0,0.00
2013-11-3,72,51,37,-100,-100,-100,0,0,100,0.00,40.00,0,-999,0,0.00
2013-11-4,53,42,35,-100,-100,-100,0,0,100,0.00,40.00,0,-999,0,0.00
2013-11-5,45,40,33,-100,-100,-100,0,0,100,0.00,40.00,0,-999,0,0.00
2013-11-6,60,38,27,-100,-100,-100,0,0,100,0.00,40.00,0,-999,0,0.00
2013-11-7,57,41,33,-100,-100,-100,0,0,100,0.00,40.00,0,-999,0,0.00
2013-11-8,76,51,37,-100,-100,-100,0,0,100,0.00,40.00,0,-999,0,0.00
2013-11-9,53,43,37,-100,-100,-100,0,0,100,0.00,40.00,0,-999,0,0.00
2013-11-10,49,43,35,-100,-100,-100,0,0,100,0.00,40.00,0,-999,0,0.00
2013-11-11,61,42,31,-100,-100,-100,0,0,100,0.00,40.00,0,-999,0,0.00
2013-11-12,46,36,29,-100,-100,-100,0,0,100,0.00,40.00,0,-999,0,0.00
2013-11-13,72,52,29,-100,-100,-100,0,0,100,0.00,40.00,0,-999,0,0.00
2013-11-14,59,48,39,-100,-100,-100,0,0,100,0.00,40.00,0,-999,0,0.00
2013-11-15,58,46,34,-100,-100,-100,0,0,100,0.00,40.00,0,-999,0,0.00
2013-11-16,64,49,35,-100,-100,-100,0,0,100,0.00,40.00,0,-999,0,0.00
2013-11-17,56,44,32,-100,-100,-100,0,0,100,0.00,40.00,0,-999,0,0.00
2013-11-18,60,51,29,-100,-100,-100,0,0,100,0.00,40.00,0,-999,0,0.00
2013-11-19,47,40,30,-100,-100,-100,0,0,100,0.00,40.00,0,-999,0,0.00
2013-11-20,66,49,32,-100,-100,-100,0,0,100,0.00,40.00,0,-999,0,0.00
2013-11-21,48,29,21,-100,-100,-100,0,0,100,0.00,40.00,0,-999,0,0.00
2013-11-22,22,22,22,-100,-100,-100,0,0,100,0.00,40.00,0,-999,0,0.00
2013-11-23,37,33,29,-100,-100,-100,0,0,100,0.00,40.00,0,-999,0,0.00
2013-11-24,38,30,27,-100,-100,-100,0,0,100,0.00,40.00,0,-999,0,0.00
2013-11-25,44,34,24,-100,-100,-100,0,0,100,0.00,40.00,0,-999,0,0.00
2013-11-26,50,37,28,-100,-100,-100,0,0,100,0.00,40.00,0,-999,0,0.00
2013-11-27,60,33,24,-100,-100,-100,0,0,100,0.00,40.00,0,-999,0,0.00
2013-11-28,49,35,30,-100,-100,-100,0,0,100,0.00,40.00,0,-999,0,0.00
2013-11-29,64,44,32,-100,-100,-100,0,0,100,0.00,40.00,0,-999,0,0.00
2013-11-30,64,42,27,-100,-100,-100,0,0,100,0.00,40.00,0,-999,0,0.00
2013-12-1,60,32,29,-100,-100,-100,0,0,100,0.00,40.00,0,-999,0,0.00
2013-12-2,63,42,32,-100,-100,-100,0,0,100,0.00,40.00,0,-999,0,0.00
2013-12-3,65,42,24,-100,-100,-100,0,0,100,0.00,40.00,0,-999,0,0.00
2013-12-4,23,18,13,-100,-100,-100,0,0,100,0.00,40.00,0,-999,0,0.00
2013-12-10,32,31,29,-100,-100,-100,0,0,100,0.00,40.00,0,-999,0,0.00
2013-12-11,36,30,24,-100,-100,-100,0,0,100,0.00,40.00,0,-999,0,0.00
2013-12-12,56,36,19,-100,-100,-100,0,0,100,0.00,40.00,0,-999,0,0.00
2013-12-13,50,36,25,-100,-100,-100,0,0,100,0.00,40.00,0,-999,0,0.00
2013-12-14,49,37,27,-100,-100,-100,0,0,100,0.00,40.00,0,-999,0,0.00
2013-12-15,60,37,25,-100,-100,-100,0,0,100,0.00,40.00,0,-999,0,0.00
2013-12-16,68,46,25,-100,-100,-100,0,0,100,0.00,40.00,0,-999,0,0.00
2013-12-17,53,34,27,-100,-100,-100,0,0,100,0.00,40.00,0,-999,0,0.00
2013-12-18,67,46,31,-100,-100,-100,0,0,100,0.00,40.00,0,-999,0,0.00
2013-12-19,54,40,29,-100,-100,-100,0,0,100,0.00,40.00,0,-999,0,0.00
2013-12-20,36,29,23,-100,-100,-100,0,0,100,0.00,40.00,0,-999,0,0.00
2013-12-21,42,35,16,-100,-100,-100,0,0,100,0.00,40.00,0,-999,0,0.00
2013-12-22,29,26,24,-100,-100,-100,0,0,100,0.00,40.00,0,-999,0,0.00
2013-12-23,27,25,22,-100,-100,-100,0,0,100,0.00,40.00,0,-999,0,0.00
2013-12-24,44,39,28,-100,-100,-100,0,0,100,0.00,40.00,0,-999,0,0.00
2013-12-25,46,27,20,-100,-100,-100,0,0,100,0.00,40.00,0,-999,0,0.00
2013-12-26,55,40,20,-100,-100,-100,0,0,100,0.00,40.00,0,-999,0,0.00
2013-12-27,62,31,22,-100,-100,-100,0,0,100,0.00,40.00,0,-999,0,0.00
2013-12-28,44,34,25,-100,-100,-100,0,0,100,0.00,40.00,0,-999,0,0.00
2013-12-29,28,24,22,-100,-100,-100,0,0,100,0.00,40.00,0,-999,0,0.00
2013-12-30,49,39,24,-100,-100,-100,0,0,100,0.00,40.00,0,-999,0,0.00
2013-12-31,35,28,22,-100,-100,-100,0,0,100,0.00,40.00,0,-999,0,0.00
2014-1-1,43,38,27,-100,-100,-100,0,0,100,0.00,40.00,0,-999,0,0.00
2014-1-2,49,33,22,-100,-100,-100,0,0,100,0.00,40.00,0,-999,0,0.00